Weather History for Covington, KY

Change the Weather History Date:

Thursday, June 27, 2013

  Actual Average Record
Temperature  
Mean Temperature 77 °F 75 °F  
Max Temperature 86 °F 85 °F 102 °F (1944)
Min Temperature 67 °F 65 °F 49 °F (1926)
Degree Days  
Heating Degree Days 0 0  
Month to date heating degree days 1 12  
Since 1 June heating degree days 1 12  
Since 1 July heating degree days 4981 4972  
Cooling Degree Days 12 10  
Month to date cooling degree days 216 196  
Year to date cooling degree days 355 290  
Since 1 June cooling degree days 216 196  
Growing Degree Days 26 (Base 50)    
Moisture  
Dew Point 70 °F    
Average Humidity 81    
Maximum Humidity 100    
Minimum Humidity 61    
Precipitation  
Precipitation T in 0.11 in 2.12 in (1932)
Month to date precipitation 5.95 3.68  
Year to date precipitation 23.83 22.27  
Snow  
Snow 0.00 in 0.00 in 0.00 in ()
Month to date snowfall 0.0 0.0  
Since 1 June snowfall 0.0 0.0  
Since 1 July snowfall 25.2 22.1  
Snow Depth 0.00 in    
Sea Level Pressure  
Sea Level Pressure 29.77 in    
Wind  
Wind Speed 8 mph (WSW)    
Max Wind Speed 17 mph    
Max Gust Speed 22 mph    
Visibility 6 miles    
Events Rain    
T = Trace of Precipitation, MM = Missing Value Source: NWS Daily Summary

Daily Weather History Graph

Daily Weather History Graph

Search for Another Location

Airport:

Trip Planner

Search our weather history database for the weather conditions in past years. The results will help you decide how hot, cold, wet, or windy it might be!

Date:

Astronomy

Jun. 27, 2013 Rise Set
Actual Time 6:14 AM EDT 9:08 PM EDT
Civil Twilight 5:42 AM EDT 9:40 PM EDT
Nautical Twilight 5:02 AM EDT 10:21 PM EDT
Astronomical Twilight 4:15 AM EDT 11:07 PM EDT
Moon No Moon Rise 11:12 AM EDT (6/27)
Length of Visible Light 15h 57m
Length of Day
14h 53m
Waning Gibbous, 76% of the Moon is Illuminated
Jun 27
Waning Gibbous
Jun 30
Last Quarter
Jul 8
New
Jul 15
First Quarter
Jul 22
Full

Hourly Weather History & Observations

Time (EDT) Temp. Heat Index Dew Point Humidity Pressure Visibility Wind Dir Wind Speed Gust Speed Precip Events Conditions
12:52 AM 66.9 °F - 66.9 °F 100% 29.77 in 10.0 mi South 4.6 mph - N/A   Overcast
1:52 AM 66.9 °F - 66.9 °F 100% 29.78 in 8.0 mi South 5.8 mph - N/A   Overcast
2:52 AM 66.9 °F - 66.9 °F 100% 29.77 in 10.0 mi SSW 8.1 mph - N/A   Overcast
3:52 AM 68.0 °F - 66.9 °F 96% 29.75 in 10.0 mi SSW 6.9 mph - N/A   Overcast
4:23 AM 68.0 °F - 68.0 °F 100% 29.78 in 1.5 mi SW 6.9 mph - N/A   Overcast
4:52 AM 68.0 °F - 68.0 °F 100% 29.76 in 0.8 mi SSW 5.8 mph - N/A   Overcast
5:52 AM 69.1 °F - 68.0 °F 96% 29.76 in 0.8 mi SW 5.8 mph - 0.00 in   Light Drizzle
6:52 AM 69.1 °F - 69.1 °F 100% 29.77 in 0.8 mi West 10.4 mph - 0.00 in   Overcast
7:17 AM 69.8 °F - 69.8 °F 100% 29.80 in 0.2 mi West 8.1 mph - N/A   Overcast
7:52 AM 69.1 °F - 69.1 °F 100% 29.78 in 0.2 mi West 6.9 mph - 0.00 in   Drizzle
8:19 AM 69.8 °F - 69.8 °F 100% 29.81 in 0.5 mi West 4.6 mph - 0.00 in   Overcast
8:34 AM 69.8 °F - 69.8 °F 100% 29.80 in 0.8 mi SW 6.9 mph - 0.00 in   Overcast
8:43 AM 71.6 °F - 69.8 °F 94% 29.80 in 1.5 mi WSW 5.8 mph - 0.00 in   Overcast
8:52 AM 71.1 °F - 70.0 °F 96% 29.78 in 1.5 mi WSW 6.9 mph - 0.00 in   Overcast
9:52 AM 72.0 °F - 70.0 °F 93% 29.78 in 1.5 mi West 9.2 mph - N/A   Overcast
9:59 AM 71.6 °F - 71.6 °F 100% 29.80 in 2.5 mi West 8.1 mph - N/A   Overcast
10:52 AM 72.0 °F - 71.1 °F 97% 29.78 in 2.5 mi West 5.8 mph - N/A   Overcast
11:21 AM 73.4 °F - 71.6 °F 94% 29.81 in 2.5 mi West 9.2 mph - N/A   Overcast
11:35 AM 73.4 °F - 71.6 °F 94% 29.81 in 4.0 mi West 10.4 mph - 0.00 in Rain Light Rain
11:48 AM 75.2 °F - 71.6 °F 89% 29.81 in 5.0 mi West 8.1 mph - 0.00 in   Overcast
11:52 AM 75.9 °F - 72.0 °F 87% 29.78 in 5.0 mi West 9.2 mph - 0.00 in   Overcast
12:07 PM 78.8 °F - 73.4 °F 83% 29.80 in 6.0 mi West 8.1 mph - N/A   Haze
12:52 PM 77.0 °F - 71.1 °F 82% 29.78 in 7.0 mi West 8.1 mph - N/A   Mostly Cloudy
1:06 PM 80.6 °F 84.6 °F 71.6 °F 74% 29.80 in 8.0 mi WNW 12.7 mph 18.4 mph N/A   Mostly Cloudy
1:52 PM 81.0 °F 84.4 °F 70.0 °F 69% 29.77 in 10.0 mi WNW 9.2 mph - N/A   Mostly Cloudy
2:52 PM 82.9 °F 85.8 °F 68.0 °F 60% 29.78 in 10.0 mi NW 11.5 mph - N/A   Mostly Cloudy
3:52 PM 84.9 °F 88.8 °F 69.1 °F 59% 29.76 in 10.0 mi WNW 12.7 mph 21.9 mph N/A   Mostly Cloudy
4:52 PM 84.9 °F 89.4 °F 70.0 °F 61% 29.75 in 10.0 mi West 15.0 mph - N/A   Mostly Cloudy
5:52 PM 84.9 °F 89.4 °F 70.0 °F 61% 29.73 in 10.0 mi West 12.7 mph - N/A   Scattered Clouds
6:52 PM 82.9 °F 87.0 °F 70.0 °F 65% 29.73 in 10.0 mi West 10.4 mph - N/A   Mostly Cloudy
7:52 PM 82.9 °F 86.5 °F 69.1 °F 63% 29.74 in 10.0 mi WNW 8.1 mph - N/A   Mostly Cloudy
8:52 PM 79.0 °F - 71.1 °F 77% 29.74 in 10.0 mi WSW 4.6 mph - N/A   Overcast
9:52 PM 77.0 °F - 71.1 °F 82% 29.73 in 10.0 mi WSW 5.8 mph - 0.00 in   Mostly Cloudy
10:52 PM 75.0 °F - 68.0 °F 79% 29.72 in 10.0 mi WSW 4.6 mph - N/A   Scattered Clouds
11:52 PM 73.9 °F - 66.9 °F 79% 29.70 in 10.0 mi SSW 4.6 mph - N/A   Partly Cloudy